Cambridge, MD

4:12 PM EST on February 20, 2017 (GMT -0500)
Cambridge-Dorchester

Weather History for KCGE - May, 2014

Change the Weather History Date:

Wednesday, May 7, 2014

  Actual Average (KESN) Record (KESN)
Temperature  
Mean Temperature 58 °F -  
Max Temperature 66 °F 72 °F 87 °F (1959)
Min Temperature 51 °F 48 °F 35 °F (1970)
Degree Days  
Heating Degree Days 6    
Growing Degree Days 8 (Base 50)    
Moisture  
Dew Point 47 °F    
Average Humidity 69    
Maximum Humidity 94    
Minimum Humidity 40    
Precipitation  
Precipitation 0.00 in - - ()
Sea Level Pressure  
Sea Level Pressure 30.16 in    
Wind  
Wind Speed 4 mph (East)    
Max Wind Speed 13 mph    
Max Gust Speed 17 mph    
Visibility 10 miles    
Events      
Averages and records for this station are not official NWS values.
T = Trace of Precipitation, MM = Missing Value Source: NWS Daily Summary

Daily Weather History Graph

Daily Weather History Graph

Search for Another Location

Airport or City:

Trip Planner

Search our weather history database for the weather conditions in past years. The results will help you decide how hot, cold, wet, or windy it might be!

Date:

Astronomy

May. 07, 2014 Rise Set
Actual Time 6:00 AM EDT 8:01 PM EDT
Civil Twilight 5:31 AM EDT 8:30 PM EDT
Nautical Twilight 4:55 AM EDT 9:06 PM EDT
Astronomical Twilight 4:17 AM EDT 9:44 PM EDT
Moon 1:09 PM EDT (5/7) 1:53 AM EDT (5/7)
Length of Visible Light 14h 59m
Length of Day
14h 01m
First Quarter, 55% of the Moon is Illuminated
May 7
First Quarter
May 14
Full
May 21
Last Quarter
May 28
New
Jun 5
First Quarter

Hourly Weather History & Observations

Time (EDT) Temp. Dew Point Humidity Pressure Visibility Wind Dir Wind Speed Gust Speed Precip Events Conditions
12:09 AM 53.6 °F 50.0 °F 88% 30.05 in 10.0 mi Calm Calm - N/A   Clear
12:29 AM 51.8 °F 48.2 °F 88% 30.06 in 10.0 mi Calm Calm - N/A   Clear
12:49 AM 51.8 °F 50.0 °F 94% 30.06 in 10.0 mi Calm Calm - N/A   Clear
1:09 AM 51.8 °F 48.2 °F 88% 30.07 in 10.0 mi Calm Calm - N/A   Clear
1:29 AM 51.8 °F 48.2 °F 88% 30.07 in 10.0 mi Calm Calm - N/A   Clear
1:49 AM 51.8 °F 48.2 °F 88% 30.07 in 10.0 mi Calm Calm - N/A   Clear
2:09 AM 55.4 °F 53.6 °F 94% 30.08 in 10.0 mi NNE 8.1 mph - N/A   Clear
2:29 AM 55.4 °F 53.6 °F 94% 30.08 in 10.0 mi Calm Calm - N/A   Clear
2:49 AM 53.6 °F 50.0 °F 88% 30.08 in 10.0 mi Calm Calm - N/A   Clear
3:09 AM 51.8 °F 50.0 °F 94% 30.08 in 10.0 mi Calm Calm - N/A   Clear
3:29 AM 51.8 °F 48.2 °F 88% 30.09 in 10.0 mi Calm Calm - N/A   Clear
3:49 AM 51.8 °F 50.0 °F 94% 30.10 in 10.0 mi NNE 3.5 mph - N/A   Clear
4:09 AM 51.8 °F 48.2 °F 88% 30.11 in 10.0 mi Calm Calm - N/A   Clear
4:29 AM 51.8 °F 48.2 °F 88% 30.11 in 10.0 mi Calm Calm - N/A   Clear
5:09 AM 51.8 °F 46.4 °F 82% 30.12 in 10.0 mi NNE 4.6 mph - N/A   Clear
5:29 AM 53.6 °F 46.4 °F 77% 30.13 in 10.0 mi NE 6.9 mph - N/A   Clear
6:09 AM 53.6 °F 44.6 °F 72% 30.15 in 10.0 mi NE 4.6 mph - N/A   Clear
6:29 AM 53.6 °F 42.8 °F 67% 30.15 in 10.0 mi NE 4.6 mph - N/A   Clear
6:49 AM 53.6 °F 44.6 °F 72% 30.16 in 10.0 mi ENE 4.6 mph - N/A   Clear
7:10 AM 53.6 °F 42.8 °F 67% 30.16 in 10.0 mi ENE 4.6 mph - N/A   Clear
7:30 AM 55.4 °F 42.8 °F 63% 30.17 in 10.0 mi ENE 4.6 mph - N/A   Clear
7:50 AM 55.4 °F 41.0 °F 58% 30.17 in 10.0 mi ENE 5.8 mph - N/A   Clear
8:10 AM 59.0 °F 42.8 °F 55% 30.18 in 10.0 mi East 5.8 mph - N/A   Clear
8:30 AM 59.0 °F 41.0 °F 51% 30.19 in 10.0 mi East 8.1 mph - N/A   Clear
8:50 AM 60.8 °F 42.8 °F 52% 30.20 in 10.0 mi East 9.2 mph - N/A   Clear
9:10 AM 62.6 °F 41.0 °F 45% 30.20 in 10.0 mi ESE 9.2 mph - N/A   Clear
9:30 AM 62.6 °F 42.8 °F 48% 30.20 in 10.0 mi ESE 9.2 mph - N/A   Clear
9:50 AM 62.6 °F 41.0 °F 45% 30.20 in 10.0 mi ESE 8.1 mph - N/A   Clear
10:10 AM 64.4 °F 41.0 °F 42% 30.20 in 10.0 mi East 9.2 mph - N/A   Clear
10:30 AM 64.4 °F 39.2 °F 40% 30.21 in 10.0 mi SE 8.1 mph - N/A   Scattered Clouds
10:50 AM 64.4 °F 41.0 °F 42% 30.22 in 10.0 mi ESE 5.8 mph - N/A   Scattered Clouds
11:10 AM 66.2 °F 41.0 °F 40% 30.23 in 10.0 mi Calm Calm - N/A   Scattered Clouds
11:50 AM 66.2 °F 42.8 °F 43% 30.23 in 10.0 mi Calm Calm - N/A   Scattered Clouds
12:30 PM 66.2 °F 42.8 °F 43% 30.22 in 10.0 mi Calm Calm - N/A   Scattered Clouds
12:50 PM 66.2 °F 44.6 °F 46% 30.23 in 10.0 mi Calm Calm - N/A   Mostly Cloudy
1:10 PM 64.4 °F 44.6 °F 49% 30.26 in 10.0 mi North 4.6 mph - N/A   Mostly Cloudy
1:30 PM 60.8 °F 51.8 °F 72% 30.27 in 10.0 mi North 4.6 mph - N/A   Scattered Clouds
1:50 PM 60.8 °F 51.8 °F 72% 30.26 in 10.0 mi NNE 4.6 mph - N/A   Clear
2:10 PM 60.8 °F 53.6 °F 77% 30.20 in 7.0 mi ESE 11.5 mph - N/A   Scattered Clouds
2:30 PM 60.8 °F 53.6 °F 77% 30.18 in 10.0 mi ESE 11.5 mph - N/A   Scattered Clouds
2:50 PM 59.0 °F 50.0 °F 72% 30.16 in 10.0 mi SE 12.7 mph 17.3 mph N/A   Clear
3:10 PM 60.8 °F 50.0 °F 68% 30.18 in 10.0 mi SSE 6.9 mph - N/A   Clear
3:30 PM 60.8 °F 50.0 °F 68% 30.18 in 10.0 mi ESE 5.8 mph - N/A   Clear
3:51 PM 60.8 °F 48.2 °F 63% 30.18 in 10.0 mi East 8.1 mph - N/A   Clear
4:11 PM 60.8 °F 48.2 °F 63% 30.18 in 10.0 mi ESE 6.9 mph - N/A   Clear
4:31 PM 60.8 °F 50.0 °F 68% 30.18 in 10.0 mi East 5.8 mph - N/A   Clear
4:51 PM 60.8 °F 50.0 °F 68% 30.17 in 10.0 mi East 8.1 mph - N/A   Clear
5:11 PM 60.8 °F 48.2 °F 63% 30.17 in 10.0 mi East 8.1 mph - N/A   Clear
5:31 PM 60.8 °F 50.0 °F 68% 30.17 in 10.0 mi East 6.9 mph - N/A   Clear
6:11 PM 60.8 °F 50.0 °F 68% 30.16 in 10.0 mi ESE 6.9 mph - N/A   Clear
6:31 PM 60.8 °F 50.0 °F 68% 30.16 in 10.0 mi ESE 6.9 mph - N/A   Clear
6:51 PM 60.8 °F 51.8 °F 72% 30.16 in 10.0 mi East 5.8 mph - N/A   Clear
7:11 PM 59.0 °F 50.0 °F 72% 30.17 in 10.0 mi East 5.8 mph - N/A   Clear
7:31 PM 59.0 °F 50.0 °F 72% 30.18 in 10.0 mi ENE 4.6 mph - N/A   Clear
7:51 PM 59.0 °F 50.0 °F 72% 30.17 in 10.0 mi East 6.9 mph - N/A   Mostly Cloudy
8:11 PM 59.0 °F 50.0 °F 72% 30.18 in 10.0 mi East 8.1 mph - N/A   Overcast
8:31 PM 59.0 °F 50.0 °F 72% 30.17 in 10.0 mi ESE 8.1 mph - N/A   Overcast
10:11 PM 59.0 °F 50.0 °F 72% 30.20 in 10.0 mi ENE 3.5 mph - N/A   Mostly Cloudy
10:31 PM 59.0 °F 50.0 °F 72% 30.18 in 10.0 mi ESE 6.9 mph - N/A   Mostly Cloudy
10:51 PM 59.0 °F 50.0 °F 72% 30.18 in 10.0 mi SE 9.2 mph - N/A   Overcast
11:11 PM 59.0 °F 50.0 °F 72% 30.17 in 10.0 mi SE 8.1 mph - N/A   Overcast
11:31 PM 59.0 °F 50.0 °F 72% 30.18 in 10.0 mi SE 9.2 mph - N/A   Mostly Cloudy
11:51 PM 59.0 °F 50.0 °F 72% 30.17 in 10.0 mi SSE 10.4 mph - N/A   Mostly Cloudy